Jackpot

Texas Poker Multi Jackpot System

Kini Telah hadir Jackpot SUPER ROYAL FLUSH

Kini Telah hadir Jackpot 2000 (khusus table VIP keatas).

Ikutilah global jackpot yang tersedia di system kami, dengan system jackpot terbaru dan pertama di indonesia, anda dapat membeli jackpot dengan harga 100 rupiah saja dan menangkan hadiahnya hingga puluhan juta rupiah.

Jackpot bukanlah suatu keharusan untuk dibeli, namun kami memberikan suatu fitur tambahan untuk member tercinta dari www.royal303.net.

Terdapat tiga pilihan harga jackpot yang bisa anda beli yaitu :100,500,1000 dan 2000(khusus table VIP Keatas) rupiah.

Hadiah dari Multi jackpot system www.royal303.net

  1. full house x 10 harga jackpot yang anda beli.
      (contoh:anda membeli 1000 maka:1000 X10 = 10.000)
  2. four of kind x 250 harga jackpot yang anda beli
      (contoh:anda membeli 1000 maka:1000 X250 = 250.000)
  3. Straight flush x 1200
      (contoh:anda membeli 1000 maka:1000 X1200 = 1.200.000)
  4. Royal flush x 10000 harga jackpot yang anda beli
      (contoh:anda membeli 1000 maka:1000 X10000 = 10.000.000)
  5. SUPER ROYAL FLUSH x 30000 harga jackpot yang anda beli
      (contoh:anda membeli 1000 maka:1000 X30000 = 30.000.000)

Kondisi kartu

  1. full house adalah kondisi kartu dimana kartu anda dan kartu tengah dengan total 7 kartu bisa mendapatkan nilai 5 kartu dengan kombinasi 1 tris(three of kind) dan 1 pair, contoh 3 kartu 10 dan 2 kartu 5
  2. Four of kind adalah kondisi kartu dimana kartu anda dan kartu tengah dengan total 7 kartu bisa mendapatkan nilai 5 kartu dengan kombinasi 4 kartu yang sama jumlah dan 1 kartu apapun juga contoh anda mendapatkan 4 buah kartu angka 3 dan 1 kartu apapun.
  3. Staright flush adalah kondisi kartu dimana kartu anda dan kartu tengah dengan total 7 kartu bisa mendapatkan nilai 5 kartu dengan kombinasi seri / staright dengan kembang yang sama contoh : urutan kartu dari angka 5, 6, 7, 8 , 9 10 dengan kembang yg sama misalnya as hati
  4. Royal flush adalah kondisi kartu dimana kartu anda dan kartu tengah dengan total 7 kartu bisa mendapatkan nilai 5 kartu dengan kombinasi seri / staright dengan kembang yang sama tetapi kartu tersebut haruslah dimulai dari 10. contoh 10, Queen, Jack, King dan aces dengan kembang yang sama
  5. Super Royal flush adalah kondisi kartu dimana Kedua kartu anda digabung dengan 3 kartu pertama meja haruslah royal flush. contoh kartu anda 10,Queen kembang sama dan 3 kartu pertama meja adalah Jack, King dan aces dengan kembang yang sama

Demikian adalah penjelasan dari Multi Jackpot www.royal303.net terima kasih dan selamat bermain salam hoki dari kami

Texas Poker Jackpot Winner

TOP SUPER ROYAL FLUSH
No.TanggalNamaPriceWin
118/08 04:09MENANG4292Super Royal flush60,000,000
218/08 00:46DUWITSuper Royal flush30,000,000
317/08 20:35B24C7AF2Super Royal flush1,500,000
417/08 20:06ANAASuper Royal flush15,000,000
517/08 17:55BOSANG1Super Royal flush30,000,000
TOP ROYAL FLUSH
No.TanggalNamaPriceWin
118/08 05:29EXGAFATARRoyal flush20,000,000
218/08 05:17MAENG1994Royal flush2,000,000
318/08 05:11LITIL13Royal flush1,000,000
418/08 04:40A4E265F1Royal flush5,000,000
518/08 04:35EVARAMA97Royal flush2,000,000
TOP STRAIGHT FLUSH
No.TanggalNamaPriceWin
118/08 05:56JAROXZZStraight Flush600,000
218/08 05:55RAJABEBEKStraight Flush600,000
318/08 05:55MAMUANASStraight Flush600,000
418/08 05:54HGFGFCIVLUStraight Flush600,000
518/08 05:53POKERKU754Straight Flush600,000
LATEST JACKPOT
No.TanggalNamaPriceWin
118/08 05:56JIBOY24Full House2,000
218/08 05:56Y1GH2KP1CIFull House2,000
318/08 05:56PKRNEWHENGFull House5,000
418/08 05:56MICIN2Full House1,000
518/08 05:56NGEBELITWDFull House1,000
618/08 05:56B569374BFull House5,000
718/08 05:56ANJIING88Full House20,000
818/08 05:56ACIL_ACILFull House2,000
918/08 05:56IZPKE5UOYJFull House5,000
1018/08 05:56G4DPAIR90Full House5,000
1118/08 05:56T212SARJANAFour Of A Kind250,000
1218/08 05:56PITUNG989Full House1,000
1318/08 05:56UL4L4OKFull House1,000
1418/08 05:56CH3MEFull House1,000
1518/08 05:56JAHATFull House2,000
1618/08 05:56GH05T99Full House2,000
1718/08 05:56KOREDAZFull House2,000
1818/08 05:56KOLORIZOFull House2,000
1918/08 05:56IONZC005GZFour Of A Kind50,000
2018/08 05:56ONS12Four Of A Kind125,000
2118/08 05:56PREDUTFull House5,000
2218/08 05:56BJUTOMOFull House5,000
2318/08 05:56OKAGENGFull House1,000
2418/08 05:56ASHLAND7Full House2,000
2518/08 05:56YEL168Full House20,000
2618/08 05:56IBONPOWE02Full House2,000
2718/08 05:56U15ONFull House2,000
2818/08 05:56BANKBCA888Full House5,000
2918/08 05:56TRISNA336Full House10,000
3018/08 05:56YOTH999Full House1,000
3118/08 05:56IBRO11Full House2,000
3218/08 05:56HGFGFCIVLUFull House5,000
3318/08 05:56PEPE222Full House2,000
3418/08 05:56BARONN07Four Of A Kind50,000
3518/08 05:56WLT009Full House10,000
3618/08 05:56BERNGOSFull House2,000
3718/08 05:56JAROXZZStraight Flush600,000
3818/08 05:55KHIERA92Four Of A Kind50,000
3918/08 05:55IISNINGBILFull House1,000
4018/08 05:55GAPLOK_ASFull House10,000
4118/08 05:55SAYANGITUFull House5,000
4218/08 05:55OM_KELFull House500
4318/08 05:55RAJABEBEKStraight Flush600,000
4418/08 05:55LOGEKATEFull House2,000
4518/08 05:55GOBENG99Full House5,000
4618/08 05:55SARI0277Full House500
4718/08 05:55A___FAFull House20,000
4818/08 05:55GOJEK69Full House20,000
4918/08 05:55TAJIRRMENFull House5,000
5018/08 05:55MUMU103Full House5,000

Domino Multi Jackpot System

Ikutilah global jackpot yang tersedia di system kami, dengan system jackpot terbaru dan pertama di indonesia, anda dapat membeli jackpot dengan harga 100 rupiah saja dan menangkan hadiahnya hingga puluhan juta rupiah.

Jackpot bukanlah suatu keharusan untuk dibeli, namun kami memberikan suatu fitur tambahan untuk member tercinta dari www.royal303.net.

Terdapat tiga pilihan harga jackpot yang bisa anda beli yaitu :100,500 dan 1000 rupiah.

Hadiah dari Multi jackpot system www.royal303.net

  1. Murni Kecil x 50 harga jackpot yang anda beli.
      (contoh:anda membeli 1000 maka:1000 X 50 = 50.000)
  2. Murni Besar x 50 harga jackpot yang anda beli
      (contoh:anda membeli 1000 maka:1000 X 50 = 50.000)
  3. BALAK x 100 harga jackpot yang anda beli
      (contoh:anda membeli 1000 maka:1000 X 100 = 100.000)
  4. ENAM DEWA x 6666 harga jackpot yang anda beli
      (contoh:anda membeli 1000 maka:1000 X 6666 = 6.666.000)

Demikian adalah penjelasan dari Multi Jackpot www.royal303.net terima kasih dan selamat bermain salam hoki dari kami

Domino Jackpot Winner

TOP ENAM DEWA
No.TanggalNamaPriceWin
118/08 02:23JUD1_R1S_murni enam6,666,000
218/08 01:50OKTAQQmurni enam6,666,000
317/08 22:47ADIBON99murni enam3,333,000
417/08 22:17HUISANmurni enam6,666,000
517/08 21:35TURIAK17murni enam666,600
TOP BALAK
No.TanggalNamaPriceWin
118/08 05:54T4DACOGLENS05balak100,000
218/08 05:48DHEAAbalak10,000
318/08 05:39NARS15balak10,000
418/08 05:37NANING123balak10,000
518/08 05:29JHONONAR31balak100,000
LATEST JACKPOT
No.TanggalNamaPriceWin
118/08 05:55GAL27murni besar50,000
218/08 05:55IWANSURYAAmurni besar25,000
318/08 05:54NDRIEL19murni kecil5,000
418/08 05:54T4DACOGLENS05balak100,000
518/08 05:53NURSE89murni besar5,000
618/08 05:52DIKDIK899murni kecil25,000
718/08 05:51POTENG78murni kecil50,000
818/08 05:50GAL27murni besar50,000
918/08 05:50CICURUT303murni kecil50,000
1018/08 05:49REAL123murni besar50,000
1118/08 05:49FAIZAJA88murni kecil25,000
1218/08 05:48RIBA99murni kecil50,000
1318/08 05:48DHEAAbalak10,000
1418/08 05:48BEBAN19murni besar50,000
1518/08 05:48NDRIEL19murni kecil5,000
1618/08 05:48FJM6HJJA5Hmurni kecil25,000
1718/08 05:47SRIKANDI84murni besar50,000
1818/08 05:44AZH26murni kecil50,000
1918/08 05:43CEVI100murni besar5,000
2018/08 05:43PERIKAK99murni besar25,000
2118/08 05:43DHEAAlucky9910,000
2218/08 05:42EMON168murni kecil50,000
2318/08 05:40BRAGA9murni besar5,000
2418/08 05:40KUNYIK99lucky9910,000
2518/08 05:39NARS15balak10,000
2618/08 05:37ARFIN99murni besar50,000
2718/08 05:37NANING123balak10,000
2818/08 05:35KAMPRETT86murni besar50,000
2918/08 05:34NANING123murni besar5,000
3018/08 05:33B1J1murni kecil25,000
3118/08 05:32BROTHERSZmurni besar5,000
3218/08 05:29EMON168murni besar50,000
3318/08 05:29JHONONAR31balak100,000
3418/08 05:28SPATOR87lucky9910,000
3518/08 05:27KAMPRETT86murni besar50,000
3618/08 05:27ALAYYY22murni kecil5,000
3718/08 05:26KAMPRETT86murni besar50,000
3818/08 05:26ALTON88balak50,000
3918/08 05:24JIPS06murni kecil50,000
4018/08 05:20J0KER11murni besar25,000
4118/08 05:20GUN4ONEbalak100,000
4218/08 05:20HOKA1murni besar50,000
4318/08 05:19QUEN179murni besar50,000
4418/08 05:18IZ125315murni besar25,000
4518/08 05:18HOKA1balak50,000
4618/08 05:17BEBAN19murni besar50,000
4718/08 05:17MESERImurni kecil50,000
4818/08 05:17KAMPRETT86balak100,000
4918/08 05:17VEGAS4855murni besar50,000
5018/08 05:16RASMIN1murni kecil50,000

Ceme Multi Jackpot System

Jackpot dilihat dari gabungan kartu pemain dengan kartu bandar. Bandar harus membeli jackpot sebanyak jumlah player yang sedang duduk. Sebagai contoh bila terdapat 3 pemain duduk bermain, dan bandar memutuskan untuk membeli jackpot Rp 1.000, maka pada periode tersebut bandar akan membeli jackpot sebanyak 3xRp1.000 = Rp3.000.

Jackpot bukanlah suatu keharusan untuk dibeli, namun kami memberikan suatu fitur tambahan untuk member tercinta dari www.royal303.net.

Terdapat tiga pilihan harga jackpot yang bisa anda beli yaitu :100,500 dan 1000 rupiah.

Hadiah dari Multi jackpot system www.royal303.net

  1. Murni Kecil x 50 harga jackpot yang anda beli.
      (contoh:anda membeli 1000 maka:1000 X 50 = 50.000)
  2. Murni Besar x 50 harga jackpot yang anda beli
      (contoh:anda membeli 1000 maka:1000 X 50 = 50.000)
  3. BALAK x 200 harga jackpot yang anda beli
      (contoh:anda membeli 1000 maka:1000 X 200 = 200.000)
  4. ENAM DEWA x 6666 harga jackpot yang anda beli
      (contoh:anda membeli 1000 maka:1000 X 6666 = 6.666.000)

Demikian adalah penjelasan dari Multi Jackpot www.royal303.net terima kasih dan selamat bermain salam hoki dari kami

Ceme Jackpot Winner

TOP ENAM DEWA
No.TanggalNamaPriceWin
118/08 05:41WEROK88murni enam6,666,000
218/08 05:41QL28KENZImurni enam6,666,000
318/08 04:53LESLEY1111murni enam6,666,000
418/08 04:34BHIL03murni enam3,333,000
518/08 04:25FADEL441murni enam6,666,000
TOP BALAK
No.TanggalNamaPriceWin
118/08 05:56NGADINO72balak200,000
218/08 05:56LEOAFANDIbalak20,000
318/08 05:55EF9FF398balak200,000
418/08 05:55CICI89balak200,000
518/08 05:54KEPANG14balak100,000
LATEST JACKPOT
No.TanggalNamaPriceWin
118/08 05:56NGADINO72balak200,000
218/08 05:56BC1989murni besar50,000
318/08 05:56CODJEFmurni kecil50,000
418/08 05:56BOLENK442murni kecil25,000
518/08 05:56OPICK789murni besar5,000
618/08 05:56HAMBUGER99murni besar50,000
718/08 05:56DASRILARImurni kecil50,000
818/08 05:56R1991murni kecil25,000
918/08 05:56ABUT1504murni kecil50,000
1018/08 05:56LEOAFANDIbalak20,000
1118/08 05:55EF9FF398balak200,000
1218/08 05:55CICI89balak200,000
1318/08 05:55AADIITYAmurni kecil25,000
1418/08 05:55ROHMATULmurni besar50,000
1518/08 05:55JAVAS15murni besar50,000
1618/08 05:55WONKGILO77murni besar25,000
1718/08 05:54QQSANT99murni besar5,000
1818/08 05:54UL4Y168murni kecil50,000
1918/08 05:54DEDI_80murni kecil50,000
2018/08 05:54TORRY81murni kecil50,000
2118/08 05:54BOJAZZ99murni kecil50,000
2218/08 05:54BU53T88murni kecil50,000
2318/08 05:54TAMPU44murni besar50,000
2418/08 05:54CUNGURmurni besar50,000
2518/08 05:54KEPANG14balak100,000
2618/08 05:54MIDIS9balak200,000
2718/08 05:54MAKMUR5758murni kecil50,000
2818/08 05:53KEPANG14murni kecil25,000
2918/08 05:53MIDIS9murni kecil50,000
3018/08 05:53SAMP3U385murni besar50,000
3118/08 05:53JAVAS15murni kecil50,000
3218/08 05:53SOTOYKARImurni kecil50,000
3318/08 05:53BEINSIN123murni besar50,000
3418/08 05:52CUPENTOH11murni kecil50,000
3518/08 05:52KONTOP12murni kecil50,000
3618/08 05:52KAIIDIRmurni kecil5,000
3718/08 05:52CEVOTmurni kecil5,000
3818/08 05:52WEROK88murni kecil50,000
3918/08 05:52PAGIGU27murni kecil25,000
4018/08 05:52ARB90428murni besar25,000
4118/08 05:52KOSAR26murni kecil50,000
4218/08 05:52DUNCAMATbalak200,000
4318/08 05:52ASIONG645murni kecil50,000
4418/08 05:51EDNUS1990murni besar50,000
4518/08 05:51DUNIAQmurni kecil5,000
4618/08 05:51ROBYG4SL4Umurni besar5,000
4718/08 05:5166TODES66murni besar5,000
4818/08 05:50OMPONG23murni besar50,000
4918/08 05:50ANDRY_35murni besar5,000
5018/08 05:50OMPONG23balak200,000